Location: Cerezo de Arriba
(41.2389°N, 3.5585°W)
Time: 04:55:42
(UTC+00:00)

Cosmos 1743 - Pass Details

Date: 19 May 2025
Orbit: 431 x 441 km, 82.5° (Epoch: 23 June)

Event Time Altitude Azimuth Distance (km) Brightness Sun altitude
Rises 20:17:52 0° 6° (N) 2,453 6.6 -8.5°
Reaches altitude 10° 20:20:16 10° 22° (NNE) 1,575 5.3 -8.8°
Maximum altitude 20:22:59 22° 75° (ENE) 1,032 3.9 -9.2°
Enters shadow 20:25:02 14° 120° (ESE) 1,358 4.2 -9.5°
